HORIZONS-2

Last updated on Thu Nov 21 2024 00:02:41 GMT+0000 (Coordinated Universal Time)

1 32388U 07063B 24325.28063913 -.00000251 00000+0 00000+0 0 9995 2 32388 1.1157 87.6977 0002373 165.7012 193.6412 1.00271329 62056
UTC large
Height (km)
Speed (km/s)
/
Latitude / Longitude
Inclination (degrees)
Orbital Period (minutes)
Azimuth
Elevation
Range (km)
Doppler Factor

Next 0 passes for location: London (51.5072 / 0.1276)

Sorry there are no passes over London.